TimePST,TemperatureF,Dew PointF,Humidity,Sea Level PressureIn,VisibilityMPH,Wind Direction,Wind SpeedMPH,Gust SpeedMPH,PrecipitationIn,Events,Conditions,WindDirDegrees,DateUTC
12:10 AM,23.0,19.4,86,30.52,3.0,Calm,Calm,-,N/A,,Overcast,0,2013-01-16 08:10:00
12:53 AM,25.0,21.9,88,30.60,4.0,Calm,Calm,-,N/A,,Overcast,0,2013-01-16 08:53:00
1:20 AM,26.6,21.2,80,30.53,1.8,Calm,Calm,-,N/A,,Overcast,0,2013-01-16 09:20:00
1:48 AM,24.8,21.2,86,30.53,0.8,ENE,3.5,-,N/A,,Overcast,60,2013-01-16 09:48:00
1:53 AM,25.0,21.9,88,30.60,1.0,Calm,Calm,-,N/A,,Overcast,0,2013-01-16 09:53:00
2:03 AM,24.8,21.2,86,30.53,0.5,NE,3.5,-,N/A,Fog,Light Freezing Fog,50,2013-01-16 10:03:00
2:53 AM,25.0,21.9,88,30.61,0.2,SSE,3.5,-,N/A,Fog,Light Freezing Fog,150,2013-01-16 10:53:00
3:53 AM,24.1,21.0,88,30.61,0.5,SE,4.6,-,N/A,Fog,Light Freezing Fog,130,2013-01-16 11:53:00
4:41 AM,24.8,21.2,86,30.55,1.0,ENE,3.5,-,N/A,,Mist,60,2013-01-16 12:41:00
4:47 AM,24.8,19.4,80,30.55,3.0,Calm,Calm,-,N/A,,Overcast,0,2013-01-16 12:47:00
4:53 AM,23.0,19.9,88,30.62,4.0,ENE,4.6,-,N/A,,Overcast,60,2013-01-16 12:53:00
5:28 AM,24.8,19.4,80,30.55,2.5,ENE,3.5,-,N/A,,Overcast,70,2013-01-16 13:28:00
5:53 AM,24.1,21.0,88,30.61,1.2,ENE,4.6,-,N/A,,Overcast,60,2013-01-16 13:53:00
6:53 AM,24.1,21.0,88,30.61,0.8,East,5.8,-,N/A,,Overcast,100,2013-01-16 14:53:00
7:53 AM,25.0,21.9,88,30.63,0.8,Calm,Calm,-,N/A,,Overcast,0,2013-01-16 15:53:00
8:00 AM,24.8,21.2,86,30.56,0.5,Calm,Calm,-,N/A,Fog,Light Freezing Fog,0,2013-01-16 16:00:00
8:33 AM,24.8,21.2,86,30.57,1.0,Calm,Calm,-,N/A,,Overcast,0,2013-01-16 16:33:00
8:53 AM,25.0,21.9,88,30.64,1.8,ESE,4.6,-,N/A,,Overcast,120,2013-01-16 16:53:00
9:53 AM,25.0,21.9,88,30.65,2.0,Calm,Calm,-,0.00,,Overcast,0,2013-01-16 17:53:00
10:53 AM,26.1,23.0,88,30.64,2.0,Calm,Calm,-,N/A,,Overcast,0,2013-01-16 18:53:00
11:53 AM,27.0,23.0,85,30.62,2.0,Calm,Calm,-,0.00,,Overcast,0,2013-01-16 19:53:00
12:53 PM,26.1,24.1,92,30.60,3.0,Calm,Calm,-,N/A,,Overcast,0,2013-01-16 20:53:00
1:42 PM,26.6,24.8,93,30.52,2.0,Calm,Calm,-,N/A,,Overcast,0,2013-01-16 21:42:00
1:53 PM,27.0,24.1,89,30.60,2.0,Calm,Calm,-,N/A,,Overcast,0,2013-01-16 21:53:00
2:53 PM,28.9,25.0,85,30.60,2.0,Calm,Calm,-,N/A,,Overcast,0,2013-01-16 22:53:00
2:55 PM,28.4,24.8,86,30.53,4.0,Calm,Calm,-,N/A,,Partly Cloudy,0,2013-01-16 22:55:00
3:53 PM,28.9,24.1,82,30.60,4.0,Calm,Calm,-,N/A,,Haze,0,2013-01-16 23:53:00
4:53 PM,27.0,23.0,85,30.60,4.0,Calm,Calm,-,N/A,,Clear,0,2013-01-17 00:53:00
5:53 PM,25.0,21.0,85,30.60,5.0,Calm,Calm,-,N/A,,Clear,0,2013-01-17 01:53:00
6:53 PM,24.1,19.9,84,30.60,3.0,Calm,Calm,-,N/A,,Clear,0,2013-01-17 02:53:00
7:00 PM,21.2,19.4,93,30.52,1.2,Calm,Calm,-,N/A,,Clear,0,2013-01-17 03:00:00
7:02 PM,21.2,19.4,93,30.52,3.0,Calm,Calm,-,N/A,,Clear,0,2013-01-17 03:02:00
7:53 PM,23.0,19.0,85,30.60,3.0,NNE,3.5,-,N/A,,Clear,30,2013-01-17 03:53:00
7:59 PM,23.0,19.4,86,30.52,5.0,Calm,Calm,-,N/A,,Mostly Cloudy,0,2013-01-17 03:59:00
8:09 PM,24.8,21.2,86,30.52,1.5,Calm,Calm,-,N/A,,Mostly Cloudy,0,2013-01-17 04:09:00
8:12 PM,24.8,21.2,86,30.52,0.5,Calm,Calm,-,N/A,Fog,Light Freezing Fog,0,2013-01-17 04:12:00
8:23 PM,24.8,21.2,86,30.52,1.0,Calm,Calm,-,N/A,,Overcast,0,2013-01-17 04:23:00
8:28 PM,24.8,21.2,86,30.52,3.0,Calm,Calm,-,N/A,,Overcast,0,2013-01-17 04:28:00
8:53 PM,21.9,19.0,89,30.61,3.0,Calm,Calm,-,N/A,,Overcast,0,2013-01-17 04:53:00
9:02 PM,21.2,17.6,86,30.53,2.0,Calm,Calm,-,N/A,,Overcast,0,2013-01-17 05:02:00
9:14 PM,23.0,19.4,86,30.53,0.8,Calm,Calm,-,N/A,,Overcast,0,2013-01-17 05:14:00
9:23 PM,23.0,19.4,86,30.53,0.2,Calm,Calm,-,N/A,Fog,Light Freezing Fog,0,2013-01-17 05:23:00
9:53 PM,21.0,18.0,88,30.61,0.2,Calm,Calm,-,N/A,Fog,Light Freezing Fog,0,2013-01-17 05:53:00
10:48 PM,21.2,19.4,93,30.52,0.5,Calm,Calm,-,N/A,Fog,Light Freezing Fog,0,2013-01-17 06:48:00
10:53 PM,23.0,19.0,85,30.60,0.5,Calm,Calm,-,N/A,Fog,Light Freezing Fog,0,2013-01-17 06:53:00
11:09 PM,23.0,19.4,86,30.52,1.0,Calm,Calm,-,N/A,,Overcast,0,2013-01-17 07:09:00
11:22 PM,21.2,19.4,93,30.52,0.5,ESE,3.5,-,N/A,Fog,Light Freezing Fog,120,2013-01-17 07:22:00
11:53 PM,21.9,18.0,85,30.61,0.2,Calm,Calm,-,N/A,Fog,Light Freezing Fog,0,2013-01-17 07:53:00